TimePST,TemperatureF,Dew PointF,Humidity,Sea Level PressureIn,VisibilityMPH,Wind Direction,Wind SpeedMPH,Gust SpeedMPH,PrecipitationIn,Events,Conditions,WindDirDegrees,DateUTC
12:00 AM,45.9,30.7,56,29.85,-9999.0,North,-9999.0,-,N/A,,Unknown,0,2013-12-18 08:00:00
1:00 AM,43.5,31.8,63,29.86,-9999.0,North,-9999.0,-,N/A,,Unknown,0,2013-12-18 09:00:00
2:00 AM,46.6,32.4,58,29.88,-9999.0,North,-9999.0,-,N/A,,Unknown,0,2013-12-18 10:00:00
3:00 AM,43.3,32.4,65,29.93,-9999.0,North,-9999.0,-,N/A,,Unknown,0,2013-12-18 11:00:00
4:00 AM,42,28,45,29.94,,Calm,Calm,,,,,,2013-12-18 12:00:00
4:00 AM,42.4,27.7,56,29.94,-9999.0,North,-9999.0,-,0.01,,Unknown,0,2013-12-18 12:00:00
5:00 AM,41.0,25.2,53,29.96,-9999.0,North,-9999.0,-,N/A,,Unknown,0,2013-12-18 13:00:00
6:00 AM,39.7,24.6,55,29.99,-9999.0,North,-9999.0,-,N/A,,Unknown,0,2013-12-18 14:00:00
7:00 AM,37.6,28.6,70,30.03,-9999.0,North,-9999.0,-,N/A,,Unknown,0,2013-12-18 15:00:00
8:00 AM,35.2,30.9,84,30.07,-9999.0,North,-9999.0,-,N/A,,Unknown,0,2013-12-18 16:00:00
9:00 AM,34.3,28.0,78,30.09,-9999.0,North,-9999.0,-,N/A,,Unknown,0,2013-12-18 17:00:00
10:00 AM,35,27,61,30.09,,Calm,Calm,,,,,,2013-12-18 18:00:00
10:00 AM,35.2,26.6,71,30.09,-9999.0,North,-9999.0,-,0.02,,Unknown,0,2013-12-18 18:00:00
11:00 AM,37.0,25.7,64,30.09,-9999.0,North,-9999.0,-,N/A,,Unknown,0,2013-12-18 19:00:00
12:00 PM,37.6,21.0,51,30.09,-9999.0,North,-9999.0,-,N/A,,Unknown,0,2013-12-18 20:00:00
1:00 PM,37.8,17.4,44,30.12,-9999.0,North,-9999.0,-,N/A,,Unknown,0,2013-12-18 21:00:00
2:00 PM,37.9,16.0,41,30.12,-9999.0,North,-9999.0,-,N/A,,Unknown,0,2013-12-18 22:00:00
3:00 PM,36.7,19.2,49,30.14,-9999.0,North,-9999.0,-,N/A,,Unknown,0,2013-12-18 23:00:00
4:00 PM,36,16,31,30.18,,Calm,Calm,,,,,,2013-12-19 00:00:00
4:00 PM,36.0,16.2,45,30.18,-9999.0,North,-9999.0,-,N/A,,Unknown,0,2013-12-19 00:00:00
5:00 PM,34.0,18.7,54,30.21,-9999.0,North,-9999.0,-,N/A,,Unknown,0,2013-12-19 01:00:00
6:00 PM,34.9,15.6,45,30.24,-9999.0,North,-9999.0,-,N/A,,Unknown,0,2013-12-19 02:00:00
7:00 PM,34.9,14.7,44,30.27,-9999.0,North,-9999.0,-,N/A,,Unknown,0,2013-12-19 03:00:00
8:00 PM,34.3,12.4,40,30.32,-9999.0,North,-9999.0,-,N/A,,Unknown,0,2013-12-19 04:00:00
9:00 PM,34.5,13.3,42,30.33,-9999.0,North,-9999.0,-,N/A,,Unknown,0,2013-12-19 05:00:00
10:00 PM,34,15,31,30.33,,Calm,Calm,,,,,,2013-12-19 06:00:00
10:00 PM,34.0,14.5,45,30.33,-9999.0,North,-9999.0,-,N/A,,Unknown,0,2013-12-19 06:00:00
11:00 PM,32.4,11.8,43,30.30,-9999.0,North,-9999.0,-,N/A,,Unknown,0,2013-12-19 07:00:00